Date,TemperatureHighF,TemperatureAvgF,TemperatureLowF,DewpointHighF,DewpointAvgF,DewpointLowF,HumidityHigh,HumidityAvg,HumidityLow,PressureMaxIn,PressureMinIn,WindSpeedMaxMPH,WindSpeedAvgMPH,GustSpeedMaxMPH,PrecipitationSumIn
2013-4-1,70.3,58.2,47.9,51.8,43.3,28.9,95,63,28,29.93,29.80,26,3,28,0.02
2013-4-2,60.2,49.5,36.0,34.7,26.6,15.4,85,45,19,30.15,29.93,19,3,19,0.00
2013-4-3,58.4,48.6,35.9,26.8,19.6,13.8,51,32,18,30.29,30.11,15,1,17,0.00
2013-4-4,47.0,40.4,35.6,35.4,27.1,12.7,94,64,27,30.32,29.98,18,1,18,0.79
2013-4-5,63.5,48.9,35.5,45.9,37.8,28.3,96,70,28,30.03,29.89,18,3,19,0.02
2013-4-6,67.3,52.5,36.6,36.4,32.7,27.8,86,51,25,30.23,30.02,9,0,10,0.00
2013-4-7,72.0,57.6,42.2,46.7,39.9,33.0,80,54,30,30.24,30.07,14,1,17,0.00
2013-4-8,78.8,64.5,51.1,55.4,49.7,44.2,92,62,37,30.14,30.00,20,1,20,0.00
2013-4-9,85.3,69.8,54.5,57.2,52.6,48.7,89,58,31,30.16,30.02,16,1,16,0.00
2013-4-10,86.7,72.1,58.0,59.9,55.4,52.0,88,59,32,30.07,29.90,19,1,19,0.00
2013-4-11,81.6,70.7,59.5,65.7,58.7,54.7,89,67,43,29.94,29.71,20,1,20,0.02
2013-4-12,82.8,70.7,60.5,65.5,55.3,33.2,95,63,27,29.77,29.56,25,3,25,0.90
2013-4-13,75.8,61.8,46.2,43.3,37.1,27.2,74,43,17,29.99,29.77,19,1,19,0.00
2013-4-14,79.6,62.8,44.6,53.5,39.3,31.0,85,47,19,30.07,29.97,12,0,12,0.01
2013-4-15,65.0,60.0,55.9,58.4,55.7,53.3,96,86,73,30.18,29.95,7,0,9,0.26
2013-4-16,79.4,65.9,57.0,61.3,57.3,53.8,93,76,47,30.26,30.14,10,0,11,0.00
2013-4-17,81.1,68.7,57.8,61.1,57.9,55.2,93,71,42,30.19,30.07,16,1,16,0.00
2013-4-18,79.2,70.3,63.5,62.5,59.3,54.8,90,70,45,30.13,29.95,15,0,15,0.01
2013-4-19,76.7,67.7,57.5,65.9,61.4,42.6,92,81,61,29.95,29.66,26,2,26,0.23
2013-4-20,63.5,53.2,43.3,42.6,32.5,25.4,67,47,27,30.26,29.84,29,3,29,0.00
2013-4-21,61.6,50.1,38.8,39.7,35.5,31.5,80,59,37,30.47,30.25,14,0,14,0.00
2013-4-22,63.2,51.3,39.5,39.0,32.3,23.2,81,52,24,30.45,30.23,18,1,18,0.00
2013-4-23,70.3,57.1,48.5,52.1,45.3,38.4,84,65,47,30.26,30.07,10,1,10,0.00
2013-4-24,73.0,61.1,48.8,56.5,52.1,46.1,94,74,51,30.11,29.95,20,1,20,0.00
2013-4-25,70.8,58.2,47.4,56.6,37.8,24.4,80,50,18,30.27,29.99,21,3,21,0.00
2013-4-26,70.8,57.1,42.9,45.7,36.1,26.4,73,48,23,30.42,30.27,12,0,12,0.00
2013-4-27,64.3,58.2,53.6,53.2,48.5,42.8,85,70,59,30.34,30.23,5,0,5,0.00
2013-4-28,56.0,54.9,53.5,54.6,53.1,51.3,96,93,85,30.24,30.01,8,0,8,1.40
2013-4-29,69.6,59.6,54.8,61.9,56.6,53.7,97,90,69,30.03,29.93,9,0,9,0.31
2013-4-30,68.8,60.6,55.6,58.9,56.1,52.2,95,86,68,30.16,29.97,7,0,7,0.01